timestamp,surface_pressure_avg,surface_temp_avg,battery_voltage,lat,long
2018-06-16 00:00:00+00:00,390.5946,5.58,13.37,47.84626,-54.09684
2018-06-16 00:10:00+00:00,398.9661,5.5,13.29,47.84626,-54.09684
2018-06-16 00:20:00+00:00,399.4846,5.4,13.29,47.84626,-54.09684
2018-06-16 00:30:00+00:00,396.6279,5.6,13.21,47.84626,-54.09684
2018-06-16 00:40:00+00:00,399.3412,5.45,13.21,47.84626,-54.09684
2018-06-16 00:50:00+00:00,403.7745,5.28,13.21,47.84626,-54.09684
2018-06-16 01:00:00+00:00,400.4996,5.57,13.13,47.84626,-54.09684
2018-06-16 01:10:00+00:00,399.8529,5.64,13.05,47.84626,-54.09684
2018-06-16 01:20:00+00:00,402.9962,5.6,13.05,47.84626,-54.09684
2018-06-16 01:30:00+00:00,397.8196,5.68,13.05,47.84626,-54.09684
2018-06-16 01:40:00+00:00,396.4962,5.7,13.13,47.84626,-54.09684
2018-06-16 01:50:00+00:00,400.073,5.7,13.13,47.84626,-54.09684
2018-06-16 02:00:00+00:00,398.4996,5.7,13.05,47.84626,-54.09684
2018-06-16 02:10:00+00:00,393.0945,5.7,12.97,47.84626,-54.09684
2018-06-16 02:20:00+00:00,387.4513,5.7,13.05,47.84626,-54.09684
2018-06-16 02:30:00+00:00,382.1462,5.7,13.05,47.84626,-54.09684
2018-06-16 02:40:00+00:00,377.4695,5.7,13.05,47.84626,-54.09684
2018-06-16 02:50:00+00:00,370.1713,5.6,13.05,47.84626,-54.09684
2018-06-16 03:00:00+00:00,364.8713,5.5,12.97,47.84626,-54.09684
2018-06-16 03:10:00+00:00,360.4963,5.4,12.97,47.84626,-54.09684
2018-06-16 03:20:00+00:00,352.4329,5.4,12.97,47.84626,-54.09684
2018-06-16 03:30:00+00:00,341.5363,5.48,12.97,47.84626,-54.09684
2018-06-16 03:40:00+00:00,331.5463,5.47,13.05,47.84626,-54.09684
2018-06-16 03:50:00+00:00,321.4313,5.57,13.05,47.84626,-54.09684
2018-06-16 04:00:00+00:00,310.9113,6.0,12.97,47.84626,-54.09684
2018-06-16 04:10:00+00:00,296.2997,6.14,12.89,47.84626,-54.09684
2018-06-16 04:20:00+00:00,283.6597,6.1,12.97,47.84626,-54.09684
2018-06-16 04:30:00+00:00,272.0914,6.1,12.97,47.84626,-54.09684
2018-06-16 04:40:00+00:00,260.0013,6.0,12.97,47.84626,-54.09684
2018-06-16 04:50:00+00:00,248.5797,5.8,12.97,47.84626,-54.09684
2018-06-16 05:00:00+00:00,240.1998,5.97,12.97,47.84626,-54.09684
2018-06-16 05:10:00+00:00,233.1497,6.0,12.89,47.84626,-54.09684
2018-06-16 05:20:00+00:00,224.3564,6.0,12.97,47.84626,-54.09684
2018-06-16 05:30:00+00:00,212.8897,6.17,12.97,47.84626,-54.09684
2018-06-16 05:40:00+00:00,206.2748,6.2,12.97,47.84626,-54.09684
2018-06-16 05:50:00+00:00,203.0914,6.35,12.97,47.84626,-54.09684
2018-06-16 06:00:00+00:00,198.5482,6.6,12.89,47.84626,-54.09684
2018-06-16 06:10:00+00:00,192.0581,6.75,12.81,47.84626,-54.09684
2018-06-16 06:20:00+00:00,187.0631,6.9,12.89,47.84626,-54.09684
2018-06-16 06:30:00+00:00,186.6714,7.0,12.89,47.84626,-54.09684
2018-06-16 06:40:00+00:00,188.2298,7.0,12.97,47.84626,-54.09684
2018-06-16 06:50:00+00:00,185.8915,7.0,12.97,47.84626,-54.09684
2018-06-16 07:00:00+00:00,182.7198,7.0,12.89,47.84626,-54.09684
2018-06-16 07:10:00+00:00,183.6231,7.0,12.81,47.84626,-54.09684
2018-06-16 07:20:00+00:00,185.5848,6.97,12.89,47.84626,-54.09684
2018-06-16 07:30:00+00:00,183.0798,6.9,12.89,47.84626,-54.09684
2018-06-16 07:40:00+00:00,181.5464,6.9,12.89,47.84626,-54.09684
2018-06-16 07:50:00+00:00,188.7548,6.8,12.97,47.84626,-54.09684
2018-06-16 08:00:00+00:00,193.7581,6.8,12.89,47.84626,-54.09684
2018-06-16 08:10:00+00:00,192.7431,6.7,12.81,47.84626,-54.09684
2018-06-16 08:20:00+00:00,195.0998,6.7,12.89,47.84626,-54.09684
2018-06-16 08:30:00+00:00,199.8498,6.68,12.97,47.84626,-54.09684
2018-06-16 08:40:00+00:00,202.7681,6.68,13.05,47.84626,-54.09684
2018-06-16 08:50:00+00:00,204.3581,6.62,13.05,47.84626,-54.09684
2018-06-16 09:00:00+00:00,207.5814,6.59,13.05,47.84626,-54.09684
2018-06-16 09:10:00+00:00,211.2281,6.5,13.05,47.84626,-54.09684
2018-06-16 09:20:00+00:00,213.1581,6.5,13.21,47.84626,-54.09684
2018-06-16 09:30:00+00:00,216.0765,6.4,13.37,47.84626,-54.09684
2018-06-16 09:40:00+00:00,220.2614,6.29,13.6,47.84626,-54.09684
2018-06-16 09:50:00+00:00,229.7564,6.3,13.76,47.84626,-54.09684
2018-06-16 10:00:00+00:00,236.9031,6.2,13.84,47.84626,-54.09684
2018-06-16 10:10:00+00:00,240.9914,6.0,13.92,47.84626,-54.09684
2018-06-16 10:20:00+00:00,248.1047,6.0,14.24,47.84626,-54.09684
2018-06-16 10:30:00+00:00,256.8031,6.0,14.56,47.84626,-54.09684
2018-06-16 10:40:00+00:00,259.468,5.9,15.6,47.84626,-54.09684
2018-06-16 10:50:00+00:00,264.498,5.8,15.75,47.84626,-54.09684
2018-06-16 11:00:00+00:00,272.8531,5.8,14.64,47.84626,-54.09684
2018-06-16 11:10:00+00:00,282.6081,5.8,14.4,47.84626,-54.09684
2018-06-16 11:20:00+00:00,290.1514,5.7,14.4,47.84626,-54.09684
2018-06-16 11:30:00+00:00,303.2396,5.6,14.32,47.84626,-54.09684
2018-06-16 11:40:00+00:00,312.2213,5.5,14.48,47.84626,-54.09684
2018-06-16 11:50:00+00:00,318.6697,5.53,14.48,47.84626,-54.09684
2018-06-16 12:00:00+00:00,328.433,5.59,15.44,47.84626,-54.09684
2018-06-16 12:10:00+00:00,340.6213,5.6,14.72,47.84626,-54.09684
2018-06-16 12:20:00+00:00,342.4796,5.65,14.96,47.84626,-54.09684
2018-06-16 12:30:00+00:00,343.758,5.7,14.8,47.84626,-54.09684
2018-06-16 12:40:00+00:00,351.878,5.7,14.8,47.84626,-54.09684
2018-06-16 12:50:00+00:00,356.9846,5.7,14.72,47.84626,-54.09684
2018-06-16 13:00:00+00:00,355.5046,5.7,14.64,47.84626,-54.09684
2018-06-16 13:10:00+00:00,357.9613,5.7,14.64,47.84626,-54.09684
2018-06-16 13:20:00+00:00,363.8329,5.6,14.72,47.84626,-54.09684
2018-06-16 13:30:00+00:00,361.408,5.7,14.72,47.84626,-54.09684
2018-06-16 13:40:00+00:00,355.5696,5.79,14.72,47.84626,-54.09684
2018-06-16 13:50:00+00:00,355.973,5.79,14.72,47.84626,-54.09684
2018-06-16 14:00:00+00:00,355.7346,5.58,14.64,47.84626,-54.09684
2018-06-16 14:10:00+00:00,348.8497,5.69,14.56,47.84626,-54.09684
2018-06-16 14:20:00+00:00,346.7063,5.72,14.64,47.84626,-54.09684
2018-06-16 14:30:00+00:00,351.5847,5.6,14.56,47.84626,-54.09684
2018-06-16 14:40:00+00:00,349.3746,5.6,14.56,47.84626,-54.09684
2018-06-16 14:50:00+00:00,341.0097,5.71,14.64,47.84626,-54.09684
2018-06-16 15:00:00+00:00,342.2746,5.6,14.48,47.84626,-54.09684
2018-06-16 15:10:00+00:00,339.8796,5.4,14.48,47.84626,-54.09684
2018-06-16 15:20:00+00:00,327.2413,5.4,14.48,47.84626,-54.09684
2018-06-16 15:30:00+00:00,320.8563,5.4,14.48,47.84626,-54.09684
2018-06-16 15:40:00+00:00,318.218,5.38,14.48,47.84626,-54.09684
2018-06-16 15:50:00+00:00,307.5746,5.35,14.48,47.84626,-54.09684
2018-06-16 16:00:00+00:00,295.8313,5.39,14.32,47.84626,-54.09684
2018-06-16 16:10:00+00:00,290.7014,5.38,14.24,47.84626,-54.09684
2018-06-16 16:20:00+00:00,282.7263,5.39,14.32,47.84626,-54.09684
2018-06-16 16:30:00+00:00,267.5464,5.39,14.32,47.84626,-54.09684
2018-06-16 16:40:00+00:00,255.6014,5.4,14.32,47.84626,-54.09684
2018-06-16 16:50:00+00:00,248.2081,5.5,14.4,47.84626,-54.09684
2018-06-16 17:00:00+00:00,239.1614,5.7,14.4,47.84626,-54.09684
2018-06-16 17:10:00+00:00,227.0231,5.91,14.32,47.84626,-54.09684
2018-06-16 17:20:00+00:00,218.0014,6.0,14.32,47.84626,-54.09684
2018-06-16 17:30:00+00:00,211.6681,6.03,14.32,47.84626,-54.09684
2018-06-16 17:40:00+00:00,204.0414,6.19,14.32,47.84626,-54.09684
2018-06-16 17:50:00+00:00,194.6014,6.34,14.32,47.84626,-54.09684
2018-06-16 18:00:00+00:00,190.4098,6.4,14.32,47.84626,-54.09684
2018-06-16 18:10:00+00:00,188.3748,6.4,14.24,47.84626,-54.09684
2018-06-16 18:20:00+00:00,184.0782,6.3,14.32,47.84626,-54.09684
2018-06-16 18:30:00+00:00,182.2665,6.3,14.24,47.84626,-54.09684
2018-06-16 18:40:00+00:00,181.3198,6.28,14.24,47.84626,-54.09684
2018-06-16 18:50:00+00:00,177.6281,6.3,14.24,47.84626,-54.09684
2018-06-16 19:00:00+00:00,175.5048,6.48,14.24,47.84626,-54.09684
2018-06-16 19:10:00+00:00,174.6581,6.5,14.16,47.84626,-54.09684
2018-06-16 19:20:00+00:00,174.6615,6.4,14.24,47.84626,-54.09684
2018-06-16 19:30:00+00:00,177.7815,6.3,14.24,47.84626,-54.09684
2018-06-16 19:40:00+00:00,182.4665,6.31,14.24,47.84626,-54.09684
2018-06-16 19:50:00+00:00,182.2781,6.45,14.24,47.84626,-54.09684
2018-06-16 20:00:00+00:00,181.6964,6.58,14.16,47.84626,-54.09684
2018-06-16 20:10:00+00:00,185.4998,6.77,14.0,47.84626,-54.09684
2018-06-16 20:20:00+00:00,190.0348,6.8,14.08,47.84626,-54.09684
2018-06-16 20:30:00+00:00,191.6615,6.77,14.08,47.84626,-54.09684
2018-06-16 20:40:00+00:00,195.0231,6.6,14.08,47.84626,-54.09684
2018-06-16 20:50:00+00:00,201.6064,6.89,14.08,47.84626,-54.09684
2018-06-16 21:00:00+00:00,208.7448,6.3,14.0,47.84626,-54.09684
2018-06-16 21:10:00+00:00,214.3981,6.3,13.92,47.84626,-54.09684
2018-06-16 21:20:00+00:00,215.4897,6.42,13.92,47.84626,-54.09684
2018-06-16 21:30:00+00:00,221.6448,6.74,13.92,47.84626,-54.09684
2018-06-16 21:40:00+00:00,229.5898,7.06,13.92,47.84626,-54.09684
2018-06-16 21:50:00+00:00,232.5081,7.37,14.0,47.84626,-54.09684
2018-06-16 22:00:00+00:00,236.2997,7.39,13.92,47.84626,-54.09684
2018-06-16 22:10:00+00:00,242.2314,7.3,13.76,47.84626,-54.09684
2018-06-16 22:20:00+00:00,245.4214,7.42,13.76,47.84626,-54.09684
2018-06-16 22:30:00+00:00,248.5147,7.7,13.68,47.84626,-54.09684
2018-06-16 22:40:00+00:00,257.0181,7.62,13.68,47.84626,-54.09684
2018-06-16 22:50:00+00:00,267.2914,7.3,13.6,47.84626,-54.09684
2018-06-16 23:00:00+00:00,273.8181,7.38,13.53,47.84626,-54.09684
2018-06-16 23:10:00+00:00,278.6397,7.64,13.37,47.84626,-54.09684
2018-06-16 23:20:00+00:00,289.1947,7.5,13.37,47.84626,-54.09684
2018-06-16 23:30:00+00:00,301.308,7.58,13.29,47.84626,-54.09684
2018-06-16 23:40:00+00:00,311.6297,7.6,13.29,47.84626,-54.09684
2018-06-16 23:50:00+00:00,321.738,7.6,13.29,47.84626,-54.09684
